Powrót do katalogu

DELTA 1 DEB

AktywnySSO
NORAD 7161·DEBRIS·🇺🇸 United States

Wystrzelony Nov 6, 1973 z Vandenberg Space Force Base

Loading…

Następne Przeloty (najbliższe 24 godziny)

TLE

ŚwieżeSource: Space-Track

Epoka: Sep 14, 2026, 14:15 UTC

1 07161U 73086DZ  26257.59395461 -.00000024  00000-0  16332-3 0  9998
2 07161 102.2030 287.0954 0014480 318.2139 196.2356 12.41260559393882

Śledź DELTA 1 DEB w czasie rzeczywistym z AllMySat

Download on the App Store